Weather History for KMWH - February, 2013

Change the Weather History Date:

Monday, February 4, 2013

  Actual Average Record
Temperature  
Mean Temperature 35 °F 33 °F  
Max Temperature 39 °F 40 °F - ()
Min Temperature 30 °F 26 °F - ()
Degree Days  
Heating Degree Days 30 32  
Month to date heating degree days 123 129  
Since 1 July heating degree days 3477 3803  
Cooling Degree Days 0 0  
Month to date cooling degree days 0 0  
Year to date cooling degree days 0 0  
Moisture  
Dew Point 29 °F    
Average Humidity 88    
Maximum Humidity 100    
Minimum Humidity 76    
Precipitation  
Precipitation 0.00 in 0.04 in - ()
Month to date precipitation 0.00 0.15  
Year to date precipitation 0.28 1.29  
Sea Level Pressure  
Sea Level Pressure 30.10 in    
Wind  
Wind Speed 3 mph (NNE)    
Max Wind Speed 9 mph    
Max Gust Speed 10 mph    
Visibility 3 miles    
Events Fog    
T = Trace of Precipitation, MM = Missing Value Source: NWS Daily Summary

Daily Weather History Graph

Daily Weather History Graph

Search for Another Location

Airport or City:

Trip Planner

Search our weather history database for the weather conditions in past years. The results will help you decide how hot, cold, wet, or windy it might be!

Date:

Astronomy

Feb. 04, 2013 Rise Set
Actual Time 7:18 AM PST 5:04 PM PST
Civil Twilight 6:45 AM PST 5:37 PM PST
Nautical Twilight 6:09 AM PST 6:13 PM PST
Astronomical Twilight 5:33 AM PST 6:49 PM PST
Moon 2:04 AM PST (2/4) 11:26 AM PST (2/4)
Length of Visible Light 10h 51m
Length of Day
9h 46m
Last Quarter, 36% of the Moon is Illuminated
Feb 4
Last Quarter
Feb 9
New
Feb 17
First Quarter
Feb 25
Full
Mar 4
Last Quarter

Hourly Weather History & Observations

Time (PST) Temp. Windchill Dew Point Humidity Pressure Visibility Wind Dir Wind Speed Gust Speed Precip Events Conditions
12:13 AM 33.8 °F 30.8 °F 30.2 °F 87% 30.13 in 3.0 mi South 3.5 mph - N/A   Overcast
12:29 AM 33.8 °F - 30.2 °F 87% 30.13 in 2.0 mi Calm Calm - N/A   Overcast
12:39 AM 33.8 °F - 30.2 °F 87% 30.13 in 1.5 mi Calm Calm - N/A   Overcast
12:52 AM 33.1 °F - 30.9 °F 92% 30.17 in 2.5 mi Calm Calm - N/A   Overcast
1:00 AM 33.8 °F - 30.2 °F 87% 30.13 in 3.0 mi Calm Calm - N/A   Overcast
2:52 AM 33.8 °F - 30.2 °F 87% 30.14 in 3.0 mi Calm Calm - N/A   Overcast
3:07 AM 33.8 °F - 30.2 °F 87% 30.14 in 2.5 mi Calm Calm - N/A   Overcast
3:24 AM 33.8 °F - 30.2 °F 87% 30.14 in 1.5 mi Calm Calm - N/A   Overcast
3:52 AM 32.0 °F 27.5 °F 30.0 °F 92% 30.17 in 1.5 mi SE 4.6 mph - N/A   Overcast
4:14 AM 32.0 °F 28.7 °F 30.2 °F 93% 30.12 in 0.8 mi SSE 3.5 mph - N/A   Mist
4:26 AM 32.0 °F - 30.2 °F 93% 30.13 in 1.8 mi Calm Calm - N/A   Overcast
4:33 AM 32.0 °F 28.7 °F 30.2 °F 93% 30.12 in 3.0 mi South 3.5 mph - N/A   Overcast
4:41 AM 32.0 °F 28.7 °F 30.2 °F 93% 30.12 in 1.8 mi SE 3.5 mph - N/A   Overcast
4:52 AM 32.0 °F 28.7 °F 30.0 °F 92% 30.16 in 0.8 mi South 3.5 mph - N/A   Mist
5:14 AM 30.2 °F 23.4 °F 28.4 °F 93% 30.11 in 1.5 mi South 6.9 mph - N/A   Overcast
5:32 AM 32.0 °F 28.7 °F 30.2 °F 93% 30.11 in 0.5 mi South 3.5 mph - N/A Fog Fog
5:52 AM 32.0 °F - 30.9 °F 96% 30.16 in 0.5 mi Calm Calm - N/A Fog Fog
6:29 AM 30.2 °F 25.4 °F 28.4 °F 93% 30.11 in 0.2 mi SSE 4.6 mph - N/A Fog Light Freezing Fog
6:52 AM 30.9 °F 26.2 °F 28.9 °F 92% 30.14 in 0.2 mi SE 4.6 mph - N/A Fog Light Freezing Fog
6:59 AM 32.0 °F 27.5 °F 28.4 °F 87% 30.10 in 0.2 mi SE 4.6 mph - N/A Fog Fog
7:52 AM 30.0 °F - 28.0 °F 92% 30.17 in 0.2 mi Calm Calm - N/A Fog Light Freezing Fog
8:52 AM 30.9 °F - 30.0 °F 96% 30.17 in 0.2 mi Calm Calm - N/A Fog Light Freezing Fog
9:52 AM 30.9 °F 27.5 °F 28.9 °F 92% 30.17 in 0.2 mi NE 3.5 mph - N/A Fog Light Freezing Fog
10:30 AM 32.0 °F 27.5 °F 30.2 °F 93% 30.14 in 0.5 mi East 4.6 mph - N/A Fog Fog
10:52 AM 32.0 °F 28.7 °F 30.9 °F 96% 30.18 in 1.0 mi ENE 3.5 mph - N/A   Overcast
11:04 AM 32.0 °F - 30.2 °F 93% 30.14 in 3.0 mi Calm Calm - N/A   Overcast
11:52 AM 33.1 °F - 30.0 °F 89% 30.16 in 6.0 mi Calm Calm - N/A   Overcast
12:47 PM 35.6 °F - 30.2 °F 81% 30.10 in 10.0 mi Calm Calm - N/A   Overcast
12:52 PM 36.0 °F - 30.0 °F 79% 30.13 in 10.0 mi Calm Calm - N/A   Overcast
1:52 PM 37.0 °F - 30.0 °F 76% 30.12 in 10.0 mi Calm Calm - N/A   Mostly Cloudy
1:59 PM 37.4 °F - 30.2 °F 75% 30.08 in 10.0 mi Calm Calm - N/A   Scattered Clouds
2:52 PM 37.9 °F 35.5 °F 30.9 °F 76% 30.10 in 10.0 mi North 3.5 mph - N/A   Clear
3:52 PM 37.0 °F 31.6 °F 30.9 °F 79% 30.08 in 10.0 mi North 6.9 mph - N/A   Clear
4:52 PM 33.1 °F 28.7 °F 28.9 °F 85% 30.07 in 10.0 mi NNW 4.6 mph - N/A   Clear
5:52 PM 30.9 °F 24.3 °F 27.0 °F 85% 30.07 in 8.0 mi NNW 6.9 mph - N/A   Clear
6:52 PM 30.9 °F 26.2 °F 28.0 °F 89% 30.08 in 7.0 mi North 4.6 mph - N/A   Clear
7:16 PM 30.2 °F 23.4 °F 26.6 °F 86% 30.03 in 6.0 mi North 6.9 mph - N/A   Scattered Clouds
7:21 PM 30.2 °F 23.4 °F 26.6 °F 86% 30.03 in 0.5 mi North 6.9 mph - N/A Fog Light Freezing Fog
7:52 PM 30.9 °F 25.2 °F 28.0 °F 89% 30.06 in 0.8 mi North 5.8 mph - N/A   Mist
8:19 PM 30.2 °F 24.3 °F 28.4 °F 93% 30.02 in 0.8 mi North 5.8 mph - N/A   Mostly Cloudy
8:49 PM 30.2 °F 25.4 °F 28.4 °F 93% 30.00 in 0.8 mi North 4.6 mph - N/A   Overcast
8:52 PM 30.9 °F 26.2 °F 28.9 °F 92% 30.04 in 0.8 mi North 4.6 mph - N/A   Overcast
8:56 PM 30.2 °F 25.4 °F 28.4 °F 93% 30.00 in 3.0 mi North 4.6 mph - N/A   Overcast
9:04 PM 32.0 °F 25.6 °F 28.4 °F 87% 29.98 in 0.5 mi NNE 6.9 mph - N/A Fog Fog
9:45 PM 32.0 °F 27.5 °F 28.4 °F 87% 29.98 in 0.5 mi North 4.6 mph - N/A Fog Fog
9:52 PM 32.0 °F 26.4 °F 28.9 °F 88% 30.02 in 4.0 mi NNW 5.8 mph - N/A   Overcast
10:02 PM 32.0 °F 24.2 °F 28.4 °F 87% 29.99 in 4.0 mi NNW 9.2 mph - N/A   Overcast
10:52 PM 33.1 °F 28.7 °F 30.0 °F 89% 30.00 in 6.0 mi NNE 4.6 mph - N/A   Overcast
11:52 PM 33.1 °F 27.7 °F 28.9 °F 85% 29.98 in 6.0 mi NNE 5.8 mph - N/A   Overcast